Weather History for KS25 - January, 2013

Change the Weather History Date:

Wednesday, January 16, 2013

  Actual Average (KISN) Record (KISN)
Temperature  
Mean Temperature 30 °F 11 °F  
Max Temperature 35 °F 22 °F 48 °F (1961)
Min Temperature 24 °F 0 °F -34 °F (1978)
Degree Days  
Heating Degree Days 36 54  
Month to date heating degree days 874  
Since 1 July heating degree days 4621  
Cooling Degree Days 0 0  
Month to date cooling degree days 0  
Year to date cooling degree days 0  
Moisture  
Dew Point 26 °F    
Average Humidity 82    
Maximum Humidity 93    
Minimum Humidity 75    
Precipitation  
Precipitation 0.00 in 0.02 in 0.62 in (1995)
Month to date precipitation 0.34  
Year to date precipitation 0.34  
Sea Level Pressure  
Sea Level Pressure 29.92 in    
Wind  
Wind Speed 15 mph (WNW)    
Max Wind Speed 23 mph    
Max Gust Speed 32 mph    
Visibility 10 miles    
Events      
T = Trace of Precipitation, MM = Missing Value Source: NWS Daily Summary

Daily Weather History Graph

Daily Weather History Graph

Search for Another Location

Airport or City:

Trip Planner

Search our weather history database for the weather conditions in past years. The results will help you decide how hot, cold, wet, or windy it might be!

Date:

Astronomy

Jan. 16, 2013 Rise Set
Actual Time 8:36 AM CST 5:30 PM CST
Civil Twilight 8:01 AM CST 6:04 PM CST
Nautical Twilight 7:23 AM CST 6:43 PM CST
Astronomical Twilight 6:46 AM CST 7:20 PM CST
Moon 10:46 AM CST (1/16) 11:54 PM CST (1/16)
Length of Visible Light 10h 03m
Length of Day
8h 53m
Waxing Crescent, 28% of the Moon is Illuminated
Jan 16
Waxing Crescent
Jan 18
First Quarter
Jan 26
Full
Feb 3
Last Quarter
Feb 10
New

Hourly Weather History & Observations

Time (CST) Temp. Windchill Dew Point Humidity Pressure Visibility Wind Dir Wind Speed Gust Speed Precip Events Conditions
12:15 AM 35.6 °F 25.5 °F 32.0 °F 87% 29.72 in 10.0 mi West 17.3 mph 24.2 mph N/A   Mostly Cloudy
12:35 AM 35.6 °F 25.9 °F 32.0 °F 87% 29.72 in 10.0 mi West 16.1 mph 24.2 mph N/A   Mostly Cloudy
12:55 AM 35.6 °F 25.2 °F 32.0 °F 87% 29.72 in 10.0 mi West 18.4 mph - N/A   Mostly Cloudy
1:15 AM 35.6 °F 24.8 °F 32.0 °F 87% 29.72 in 10.0 mi West 19.6 mph - N/A   Overcast
1:35 AM 35.6 °F 25.5 °F 32.0 °F 87% 29.72 in 10.0 mi West 17.3 mph 23.0 mph N/A   Mostly Cloudy
1:55 AM 35.6 °F 25.9 °F 32.0 °F 87% 29.73 in 10.0 mi West 16.1 mph 20.7 mph N/A   Scattered Clouds
2:15 AM 35.6 °F 25.5 °F 32.0 °F 87% 29.72 in 10.0 mi West 17.3 mph 23.0 mph N/A   Partly Cloudy
2:35 AM 35.6 °F 24.8 °F 30.2 °F 81% 29.73 in 10.0 mi West 19.6 mph 26.5 mph N/A   Clear
2:55 AM 35.6 °F 24.5 °F 30.2 °F 81% 29.72 in 10.0 mi West 20.7 mph 25.3 mph N/A   Partly Cloudy
3:15 AM 35.6 °F 24.5 °F 30.2 °F 81% 29.72 in 10.0 mi West 20.7 mph 26.5 mph N/A   Partly Cloudy
3:35 AM 35.6 °F 26.2 °F 30.2 °F 81% 29.73 in 10.0 mi West 15.0 mph 23.0 mph N/A   Clear
3:55 AM 35.6 °F 24.8 °F 30.2 °F 81% 29.72 in 10.0 mi West 19.6 mph 27.6 mph N/A   Partly Cloudy
4:15 AM 35.6 °F 24.5 °F 30.2 °F 81% 29.72 in 10.0 mi West 20.7 mph 26.5 mph N/A   Mostly Cloudy
4:35 AM 35.6 °F 25.5 °F 28.4 °F 75% 29.71 in 10.0 mi West 17.3 mph 26.5 mph N/A   Mostly Cloudy
4:55 AM 35.6 °F 24.8 °F 28.4 °F 75% 29.71 in 10.0 mi West 19.6 mph 26.5 mph N/A   Mostly Cloudy
5:15 AM 35.6 °F 24.5 °F 28.4 °F 75% 29.71 in 10.0 mi West 20.7 mph 28.8 mph N/A   Partly Cloudy
5:35 AM 35.6 °F 24.0 °F 30.2 °F 81% 29.71 in 10.0 mi West 23.0 mph 32.2 mph N/A   Clear
5:55 AM 35.6 °F 24.5 °F 28.4 °F 75% 29.72 in 10.0 mi West 20.7 mph 29.9 mph N/A   Mostly Cloudy
6:35 AM 35.6 °F 26.2 °F 28.4 °F 75% 29.73 in 10.0 mi West 15.0 mph 21.9 mph N/A   Scattered Clouds
6:55 AM 35.6 °F 25.5 °F 30.2 °F 81% 29.74 in 10.0 mi West 17.3 mph - N/A   Partly Cloudy
7:15 AM 35.6 °F 25.9 °F 28.4 °F 75% 29.75 in 10.0 mi West 16.1 mph - N/A   Partly Cloudy
7:35 AM 35.6 °F 26.2 °F 30.2 °F 81% 29.76 in 10.0 mi West 15.0 mph 19.6 mph N/A   Partly Cloudy
7:55 AM 35.6 °F 25.5 °F 30.2 °F 81% 29.77 in 10.0 mi West 17.3 mph 24.2 mph N/A   Partly Cloudy
8:15 AM 35.6 °F 25.9 °F 30.2 °F 81% 29.77 in 10.0 mi West 16.1 mph - N/A   Clear
8:35 AM 35.6 °F 25.5 °F 28.4 °F 75% 29.79 in 10.0 mi West 17.3 mph - N/A   Clear
8:55 AM 35.6 °F 25.9 °F 30.2 °F 81% 29.80 in 10.0 mi West 16.1 mph 23.0 mph N/A   Clear
9:15 AM 35.6 °F 25.9 °F 30.2 °F 81% 29.81 in 10.0 mi WNW 16.1 mph 19.6 mph N/A   Mostly Cloudy
9:35 AM 35.6 °F 26.2 °F 30.2 °F 81% 29.83 in 10.0 mi WNW 15.0 mph 21.9 mph N/A   Mostly Cloudy
9:55 AM 35.6 °F 25.9 °F 30.2 °F 81% 29.85 in 10.0 mi WNW 16.1 mph 21.9 mph N/A   Mostly Cloudy
10:15 AM 35.6 °F 26.2 °F 30.2 °F 81% 29.86 in 10.0 mi WNW 15.0 mph - N/A   Overcast
10:35 AM 35.6 °F 26.2 °F 30.2 °F 81% 29.87 in 10.0 mi NW 15.0 mph - N/A   Overcast
10:55 AM 35.6 °F 25.5 °F 30.2 °F 81% 29.90 in 10.0 mi North 17.3 mph 26.5 mph N/A   Overcast
11:15 AM 32.0 °F 20.1 °F 28.4 °F 87% 29.92 in 10.0 mi North 19.6 mph - N/A   Overcast
11:35 AM 32.0 °F 20.8 °F 28.4 °F 87% 29.93 in 10.0 mi North 17.3 mph 20.7 mph N/A   Overcast
11:55 AM 32.0 °F 22.1 °F 26.6 °F 80% 29.95 in 10.0 mi North 13.8 mph - N/A   Overcast
12:15 PM 32.0 °F 23.6 °F 26.6 °F 80% 29.96 in 10.0 mi North 10.4 mph - N/A   Overcast
12:35 PM 30.2 °F 21.9 °F 26.6 °F 86% 29.97 in 10.0 mi NNW 9.2 mph - N/A   Overcast
12:55 PM 30.2 °F 22.6 °F 24.8 °F 80% 29.97 in 10.0 mi NNW 8.1 mph - N/A   Overcast
1:15 PM 30.2 °F 23.4 °F 24.8 °F 80% 29.97 in 10.0 mi NW 6.9 mph - N/A   Overcast
1:35 PM 30.2 °F 23.4 °F 24.8 °F 80% 29.97 in 10.0 mi WNW 6.9 mph - N/A   Overcast
2:15 PM 30.2 °F 23.4 °F 24.8 °F 80% 29.99 in 10.0 mi NW 6.9 mph - N/A   Overcast
2:35 PM 30.2 °F 23.4 °F 26.6 °F 86% 30.00 in 10.0 mi NNW 6.9 mph - N/A   Overcast
2:55 PM 28.4 °F 18.0 °F 24.8 °F 86% 30.01 in 10.0 mi NW 12.7 mph - N/A   Overcast
3:15 PM 28.4 °F 17.0 °F 24.8 °F 86% 30.00 in 10.0 mi North 15.0 mph - N/A   Overcast
3:35 PM 26.6 °F 16.2 °F 23.0 °F 86% 30.02 in 10.0 mi NNE 11.5 mph - N/A   Overcast
3:55 PM 26.6 °F 16.8 °F 21.2 °F 80% 30.04 in 10.0 mi NNE 10.4 mph - N/A   Overcast
4:15 PM 26.6 °F 17.5 °F 21.2 °F 80% 30.06 in 10.0 mi NNE 9.2 mph - N/A   Overcast
4:35 PM 24.8 °F 15.3 °F 19.4 °F 80% 30.06 in 10.0 mi North 9.2 mph - N/A   Overcast
4:55 PM 24.8 °F 17.9 °F 21.2 °F 86% 30.08 in 10.0 mi NNE 5.8 mph - N/A   Overcast
5:15 PM 24.8 °F 16.1 °F 19.4 °F 80% 30.09 in 10.0 mi NNE 8.1 mph - N/A   Overcast
5:55 PM 24.8 °F 20.5 °F 19.4 °F 80% 30.10 in 10.0 mi NNE 3.5 mph - N/A   Overcast
6:15 PM 24.8 °F 17.9 °F 19.4 °F 80% 30.10 in 10.0 mi NNE 5.8 mph - N/A   Overcast
6:35 PM 24.8 °F 16.9 °F 19.4 °F 80% 30.10 in 10.0 mi NE 6.9 mph - N/A   Overcast
6:55 PM 24.8 °F - 19.4 °F 80% 30.10 in 10.0 mi Calm Calm - N/A   Overcast
7:15 PM 24.8 °F - 19.4 °F 80% 30.11 in 10.0 mi Calm Calm - N/A   Overcast
7:35 PM 24.8 °F - 19.4 °F 80% 30.10 in 10.0 mi Calm Calm - N/A   Overcast
7:55 PM 24.8 °F - 19.4 °F 80% 30.11 in 10.0 mi Calm Calm - N/A   Overcast
8:15 PM 24.8 °F 19.1 °F 19.4 °F 80% 30.11 in 10.0 mi SSW 4.6 mph - N/A   Overcast
8:35 PM 24.8 °F 16.9 °F 19.4 °F 80% 30.12 in 10.0 mi SW 6.9 mph - N/A   Overcast
8:55 PM 24.8 °F 17.9 °F 21.2 °F 86% 30.11 in 10.0 mi WSW 5.8 mph - N/A   Overcast
9:15 PM 24.8 °F 16.9 °F 21.2 °F 86% 30.13 in 10.0 mi West 6.9 mph - N/A   Overcast
9:35 PM 24.8 °F 16.1 °F 21.2 °F 86% 30.12 in 10.0 mi WSW 8.1 mph - N/A   Mostly Cloudy
9:55 PM 24.8 °F 14.6 °F 21.2 °F 86% 30.13 in 10.0 mi SW 10.4 mph - N/A   Scattered Clouds
10:15 PM 24.8 °F 15.3 °F 21.2 °F 86% 30.13 in 10.0 mi WSW 9.2 mph - N/A   Mostly Cloudy
10:35 PM 24.8 °F 16.1 °F 21.2 °F 86% 30.13 in 10.0 mi SW 8.1 mph - N/A   Partly Cloudy
10:55 PM 24.8 °F 16.1 °F 23.0 °F 93% 30.13 in 10.0 mi WSW 8.1 mph - N/A   Mostly Cloudy
11:15 PM 24.8 °F 14.6 °F 23.0 °F 93% 30.14 in 10.0 mi WSW 10.4 mph - N/A   Overcast
11:35 PM 26.6 °F 16.8 °F 24.8 °F 93% 30.13 in 10.0 mi SW 10.4 mph - N/A   Mostly Cloudy
11:55 PM 26.6 °F 17.5 °F 23.0 °F 86% 30.14 in 10.0 mi WSW 9.2 mph - N/A   Scattered Clouds